Weather History for KGEV - January, 2013

Change the Weather History Date:

Thursday, January 24, 2013

  Actual Average Record
Temperature  
Mean Temperature 24 °F -  
Max Temperature 36 °F 46 °F 64 °F (1972)
Min Temperature 13 °F 25 °F -4 °F (2014)
Degree Days  
Heating Degree Days 40    
Moisture  
Dew Point 7 °F    
Average Humidity 48    
Maximum Humidity 66    
Minimum Humidity 29    
Precipitation  
Precipitation 0.00 in - - ()
Sea Level Pressure  
Sea Level Pressure 30.09 in    
Wind  
Wind Speed 25 mph (NW)    
Max Wind Speed 40 mph    
Max Gust Speed 66 mph    
Visibility 10 miles    
Events      
Averages and records for this station are not official NWS values.
T = Trace of Precipitation, MM = Missing Value Source: NWS Daily Summary

Daily Weather History Graph

Daily Weather History Graph

Search for Another Location

Airport or City:

Trip Planner

Search our weather history database for the weather conditions in past years. The results will help you decide how hot, cold, wet, or windy it might be!

Date:

Astronomy

Jan. 24, 2013 Rise Set
Actual Time 7:32 AM EST 5:43 PM EST
Civil Twilight 7:04 AM EST 6:11 PM EST
Nautical Twilight 6:33 AM EST 6:42 PM EST
Astronomical Twilight 6:03 AM EST 7:13 PM EST
Moon 3:45 PM EST (1/24) 5:28 AM EST (1/24)
Length of Visible Light 11h 06m
Length of Day
10h 11m
Waxing Gibbous, 94% of the Moon is Illuminated
Jan 24
Waxing Gibbous
Jan 26
Full
Feb 3
Last Quarter
Feb 10
New
Feb 17
First Quarter

Hourly Weather History & Observations

Time (EST) Temp. Windchill Dew Point Humidity Pressure Visibility Wind Dir Wind Speed Gust Speed Precip Events Conditions
12:15 AM 35.2 °F 20.8 °F 22.1 °F 59% 29.89 in 10.0 mi West 36.8 mph 50.6 mph N/A   Clear
12:35 AM 35.6 °F 21.7 °F 22.5 °F 59% 29.88 in 10.0 mi WNW 34.5 mph 61.0 mph N/A   Scattered Clouds
12:55 AM 36.0 °F 22.6 °F 23.0 °F 59% 29.88 in 10.0 mi WNW 32.2 mph 47.2 mph N/A   Mostly Cloudy
1:15 AM 36.1 °F 23.0 °F 23.2 °F 59% 29.88 in 10.0 mi WNW 31.1 mph 58.7 mph N/A   Overcast
1:35 AM 36.0 °F 23.0 °F 23.5 °F 61% 29.87 in 10.0 mi West 29.9 mph 56.4 mph N/A   Overcast
1:55 AM 36.0 °F 21.6 °F 23.9 °F 62% 29.86 in 10.0 mi West 38.0 mph 51.8 mph N/A   Overcast
2:15 AM 35.8 °F 22.8 °F 23.2 °F 60% 29.87 in 10.0 mi WNW 29.9 mph 62.1 mph N/A   Overcast
2:35 AM 35.8 °F 22.5 °F 23.5 °F 61% 29.86 in 10.0 mi WNW 31.1 mph 51.8 mph N/A   Overcast
2:55 AM 35.4 °F 20.9 °F 24.6 °F 65% 29.85 in 10.0 mi West 38.0 mph 52.9 mph N/A   Overcast
3:15 AM 35.1 °F 22.0 °F 24.6 °F 66% 29.87 in 10.0 mi WNW 28.8 mph 46.0 mph N/A   Overcast
3:35 AM 34.7 °F 21.3 °F 24.4 °F 66% 29.87 in 10.0 mi WNW 29.9 mph 59.8 mph N/A   Overcast
3:55 AM 33.8 °F 19.0 °F 23.5 °F 66% 29.85 in 10.0 mi WNW 35.7 mph 58.7 mph N/A   Overcast
4:15 AM 33.6 °F 18.0 °F 22.1 °F 63% 29.84 in 10.0 mi WNW 40.3 mph 58.7 mph N/A   Overcast
4:55 AM 32.0 °F 16.2 °F 19.4 °F 60% 29.85 in 10.0 mi WNW 38.0 mph 62.1 mph N/A   Scattered Clouds
5:15 AM 31.6 °F 15.7 °F 18.0 °F 57% 29.84 in 10.0 mi WNW 38.0 mph 56.4 mph N/A   Scattered Clouds
5:35 AM 30.9 °F 14.3 °F 16.7 °F 56% 29.85 in 10.0 mi WNW 40.3 mph 57.5 mph N/A   Clear
5:55 AM 30.2 °F 13.3 °F 16.7 °F 57% 29.85 in 10.0 mi WNW 40.3 mph 55.2 mph N/A   Clear
6:15 AM 29.3 °F 13.0 °F 15.8 °F 57% 29.88 in 10.0 mi WNW 34.5 mph 52.9 mph N/A   Clear
6:35 AM 28.8 °F 14.3 °F 15.3 °F 57% 29.89 in 10.0 mi NW 25.3 mph 50.6 mph N/A   Clear
6:55 AM 27.7 °F 12.3 °F 15.8 °F 61% 29.90 in 10.0 mi WNW 27.6 mph 41.4 mph N/A   Clear
7:15 AM 25.9 °F 8.6 °F 14.9 °F 63% 29.91 in 10.0 mi WNW 33.4 mph 57.5 mph N/A   Scattered Clouds
7:35 AM 24.8 °F 6.4 °F 13.3 °F 62% 29.91 in 10.0 mi WNW 36.8 mph 52.9 mph N/A   Clear
7:55 AM 24.3 °F 6.9 °F 12.2 °F 60% 29.92 in 10.0 mi WNW 31.1 mph 50.6 mph N/A   Clear
8:15 AM 23.7 °F 6.1 °F 12.0 °F 61% 29.94 in 10.0 mi WNW 31.1 mph 56.4 mph N/A   Clear
8:35 AM 23.5 °F 4.6 °F 11.1 °F 59% 29.95 in 10.0 mi NW 36.8 mph 65.6 mph N/A   Clear
8:55 AM 23.7 °F 6.1 °F 10.0 °F 56% 29.98 in 10.0 mi WNW 31.1 mph 50.6 mph N/A   Clear
9:15 AM 23.5 °F 7.6 °F 8.6 °F 53% 30.01 in 10.0 mi NW 24.2 mph 41.4 mph N/A   Scattered Clouds
9:35 AM 22.8 °F 4.9 °F 7.9 °F 53% 30.01 in 10.0 mi NW 31.1 mph 56.4 mph N/A   Clear
10:15 AM 22.3 °F 7.0 °F 7.5 °F 53% 30.07 in 10.0 mi NW 20.7 mph 35.7 mph N/A   Clear
10:55 AM 22.8 °F 8.1 °F 1.0 °F 39% 30.12 in 10.0 mi NNW 19.6 mph 31.1 mph N/A   Clear
11:15 AM 22.8 °F 8.5 °F 2.3 °F 41% 30.14 in 10.0 mi NNW 18.4 mph 27.6 mph N/A   Clear
11:35 AM 23.4 °F 15.2 °F 3.2 °F 42% 30.16 in 10.0 mi NNW 6.9 mph 19.6 mph N/A   Clear
11:55 AM 22.6 °F 8.7 °F 1.4 °F 40% 30.16 in 10.0 mi NNW 17.3 mph 25.3 mph N/A   Clear
12:15 PM 22.3 °F 9.7 °F -0.9 °F 36% 30.17 in 10.0 mi NNW 13.8 mph 23.0 mph N/A   Clear
12:35 PM 21.9 °F 8.7 °F -3.8 °F 32% 30.18 in 10.0 mi NW 15.0 mph 26.5 mph N/A   Clear
12:55 PM 22.1 °F 9.5 °F -3.5 °F 33% 30.18 in 10.0 mi NW 13.8 mph 23.0 mph N/A   Clear
1:15 PM 22.3 °F 9.7 °F -4.0 °F 32% 30.18 in 10.0 mi NW 13.8 mph 25.3 mph N/A   Clear
1:35 PM 22.8 °F 11.5 °F -4.5 °F 30% 30.19 in 10.0 mi NW 11.5 mph 21.9 mph N/A   Clear
1:55 PM 22.5 °F 9.9 °F -5.8 °F 29% 30.19 in 10.0 mi NW 13.8 mph 21.9 mph N/A   Clear
2:15 PM 22.8 °F 10.4 °F -4.7 °F 30% 30.19 in 10.0 mi NW 13.8 mph 18.4 mph N/A   Clear
2:35 PM 22.6 °F 11.3 °F -5.3 °F 29% 30.20 in 10.0 mi NNW 11.5 mph 20.7 mph N/A   Clear
2:55 PM 22.8 °F 9.9 °F -4.4 °F 30% 30.21 in 10.0 mi NW 15.0 mph 19.6 mph N/A   Clear
3:15 PM 22.5 °F 11.7 °F -4.4 °F 31% 30.22 in 10.0 mi NW 10.4 mph 18.4 mph N/A   Clear
3:35 PM 22.8 °F 11.5 °F -4.4 °F 30% 30.22 in 10.0 mi NW 11.5 mph - N/A   Clear
3:55 PM 22.3 °F 12.2 °F -5.1 °F 30% 30.23 in 10.0 mi NNW 9.2 mph 17.3 mph N/A   Clear
4:15 PM 22.1 °F 14.7 °F -4.4 °F 31% 30.25 in 10.0 mi WNW 5.8 mph - N/A   Clear
4:35 PM 21.9 °F 13.4 °F -3.8 °F 32% 30.26 in 10.0 mi NW 6.9 mph - N/A   Clear
4:55 PM 21.0 °F 13.4 °F -4.0 °F 33% 30.25 in 10.0 mi WNW 5.8 mph - N/A   Clear
5:15 PM 20.8 °F 9.7 °F -4.5 °F 33% 30.26 in 10.0 mi NW 10.4 mph - N/A   Clear
5:35 PM 20.3 °F 13.8 °F -3.8 °F 35% 30.27 in 10.0 mi WNW 4.6 mph - N/A   Clear
5:55 PM 19.9 °F 12.1 °F -3.6 °F 35% 30.27 in 10.0 mi WNW 5.8 mph - N/A   Clear
6:35 PM 19.2 °F 12.5 °F -3.3 °F 37% 30.28 in 10.0 mi NNW 4.6 mph - N/A   Clear
6:55 PM 18.5 °F 13.3 °F -2.6 °F 40% 30.29 in 10.0 mi NNW 3.5 mph - N/A   Clear
7:15 PM 18.1 °F - -2.0 °F 41% 30.30 in 10.0 mi Calm Calm - N/A   Clear
7:35 PM 17.6 °F - -1.3 °F 44% 30.30 in 10.0 mi Calm Calm - N/A   Clear
8:15 PM 16.7 °F - -1.7 °F 44% 30.31 in 10.0 mi Calm Calm - N/A   Clear
8:35 PM 16.0 °F 8.8 °F -1.3 °F 47% 30.31 in 10.0 mi North 4.6 mph - N/A   Clear
8:55 PM 15.8 °F 10.2 °F -1.1 °F 47% 30.30 in 10.0 mi North 3.5 mph - N/A   Clear
9:15 PM 15.8 °F 8.6 °F -2.6 °F 44% 30.30 in 10.0 mi North 4.6 mph - N/A   Clear
9:55 PM 15.3 °F 9.6 °F -1.7 °F 47% 30.30 in 10.0 mi NNE 3.5 mph - N/A   Clear
10:15 PM 14.4 °F 6.9 °F -0.8 °F 51% 30.29 in 10.0 mi ENE 4.6 mph - N/A   Clear
10:35 PM 14.5 °F - -0.6 °F 51% 30.28 in 10.0 mi Calm Calm - N/A   Clear
10:55 PM 14.2 °F 6.7 °F 0.1 °F 54% 30.28 in 10.0 mi NE 4.6 mph - N/A   Clear
11:15 PM 14.0 °F 8.2 °F 0.7 °F 56% 30.29 in 10.0 mi East 3.5 mph - N/A   Clear
11:35 PM 13.8 °F - 0.3 °F 55% 30.29 in 10.0 mi Calm Calm - N/A   Clear
11:55 PM 14.0 °F - 1.2 °F 57% 30.30 in 10.0 mi Calm Calm - N/A   Clear